Vicksburg, LA

7:44 PM CST on December 11, 2017 (GMT -0600)
Vicksburg Tallulah Regional

Weather History for KTVR - December, 2011

Change the Weather History Date:

Saturday, December 24, 2011

  Actual Average Record
Temperature  
Mean Temperature 45 °F 47 °F  
Max Temperature 47 °F 57 °F 81 °F (1955)
Min Temperature 42 °F 36 °F 5 °F (1989)
Degree Days  
Heating Degree Days 20 19  
Month to date heating degree days 404 401  
Since 1 July heating degree days 851 803  
Cooling Degree Days 0 0  
Month to date cooling degree days 5 0  
Year to date cooling degree days 2593 2225  
Moisture  
Dew Point 38 °F    
Average Humidity 83    
Maximum Humidity 89    
Minimum Humidity 76    
Precipitation  
Precipitation 0.06 in 0.18 in 2.80 in (1973)
Month to date precipitation 4.65 4.55  
Year to date precipitation 36.05 53.68  
Sea Level Pressure  
Sea Level Pressure 30.42 in    
Wind  
Wind Speed 9 mph (NNE)    
Max Wind Speed 15 mph    
Max Gust Speed 17 mph    
Visibility 9 miles    
Events Rain    
T = Trace of Precipitation, MM = Missing Value Source: NWS Daily Summary

Daily Weather History Graph

Daily Weather History Graph

Search for Another Location

Airport or City:

Trip Planner

Search our weather history database for the weather conditions in past years. The results will help you decide how hot, cold, wet, or windy it might be!

Date:

Astronomy

Dec. 24, 2011 Rise Set
Actual Time 7:02 AM CST 5:04 PM CST
Civil Twilight 6:35 AM CST 5:31 PM CST
Nautical Twilight 6:04 AM CST 6:02 PM CST
Astronomical Twilight 5:34 AM CST 6:32 PM CST
Moon 6:51 AM CST (12/24) 5:17 PM CST (12/24)
Length of Visible Light 10h 56m
Length of Day
10h 01m
New Moon, 0% of the Moon is Illuminated
Dec 24
New Moon
Dec 24
New
Jan 1
First Quarter
Jan 9
Full
Jan 16
Last Quarter

Hourly Weather History & Observations

Time (CST) Temp. Windchill Dew Point Humidity Pressure Visibility Wind Dir Wind Speed Gust Speed Precip Events Conditions
12:53 AM 42.1 °F 36.6 °F 37.0 °F 82% 30.43 in 9.0 mi NNE 9.2 mph - N/A   Overcast
1:44 AM 42.8 °F 37.0 °F 37.4 °F 81% 30.40 in 9.0 mi NNE 10.4 mph - N/A   Overcast
1:53 AM 42.1 °F 35.7 °F 37.0 °F 82% 30.42 in 9.0 mi NNE 11.5 mph - N/A   Overcast
2:53 AM 42.1 °F 37.1 °F 37.0 °F 82% 30.43 in 9.0 mi NE 8.1 mph - N/A   Overcast
3:53 AM 42.1 °F 36.6 °F 37.0 °F 82% 30.43 in 8.0 mi North 9.2 mph - N/A   Overcast
4:53 AM 42.1 °F 35.7 °F 37.0 °F 82% 30.43 in 9.0 mi NNE 11.5 mph - N/A   Overcast
5:37 AM 42.8 °F 37.5 °F 37.4 °F 81% 30.42 in 9.0 mi NE 9.2 mph - N/A   Overcast
5:53 AM 42.1 °F 36.6 °F 37.0 °F 82% 30.44 in 9.0 mi NE 9.2 mph - N/A   Overcast
6:53 AM 42.1 °F 36.6 °F 37.0 °F 82% 30.45 in 8.0 mi NE 9.2 mph - N/A   Overcast
7:41 AM 42.8 °F 37.5 °F 37.4 °F 81% 30.43 in 7.0 mi NE 9.2 mph - N/A   Overcast
7:53 AM 42.1 °F 35.2 °F 37.0 °F 82% 30.46 in 7.0 mi NE 12.7 mph - N/A   Overcast
8:53 AM 42.1 °F 36.6 °F 37.0 °F 82% 30.47 in 7.0 mi NE 9.2 mph - N/A   Overcast
9:53 AM 43.0 °F 37.7 °F 37.9 °F 82% 30.47 in 5.0 mi NE 9.2 mph - N/A   Haze
10:53 AM 44.1 °F 39.5 °F 37.9 °F 79% 30.45 in 8.0 mi ENE 8.1 mph - N/A   Overcast
11:27 AM 44.6 °F 39.2 °F 37.4 °F 76% 30.41 in 10.0 mi NE 10.4 mph - N/A   Overcast
11:53 AM 45.0 °F 39.3 °F 39.0 °F 80% 30.41 in 10.0 mi NNE 11.5 mph - N/A   Overcast
12:53 PM 46.0 °F 41.4 °F 39.0 °F 76% 30.40 in 9.0 mi North 9.2 mph - N/A   Overcast
1:53 PM 46.0 °F 40.6 °F 39.0 °F 76% 30.40 in 10.0 mi North 11.5 mph - N/A   Overcast
2:53 PM 46.9 °F - 39.0 °F 74% 30.38 in 10.0 mi North 9.2 mph - N/A   Mostly Cloudy
3:53 PM 45.0 °F 39.3 °F 39.0 °F 80% 30.37 in 10.0 mi NNE 11.5 mph - N/A   Partly Cloudy
4:53 PM 45.0 °F 40.6 °F 39.0 °F 80% 30.38 in 10.0 mi North 8.1 mph - N/A   Clear
6:09 PM 44.6 °F 40.2 °F 39.2 °F 81% 30.39 in 10.0 mi North 8.1 mph - N/A   Mostly Cloudy
6:53 PM 44.1 °F 39.5 °F 39.0 °F 82% 30.43 in 10.0 mi North 8.1 mph - 0.00 in   Overcast
7:53 PM 44.1 °F 39.0 °F 39.9 °F 85% 30.45 in 9.0 mi North 9.2 mph - 0.00 in Rain Light Rain
8:53 PM 43.0 °F 37.7 °F 39.9 °F 89% 30.41 in 7.0 mi NE 9.2 mph - 0.02 in Rain Light Rain
9:53 PM 44.1 °F 42.5 °F 41.0 °F 89% 30.42 in 10.0 mi NE 3.5 mph - 0.01 in   Mostly Cloudy
10:53 PM 44.1 °F 41.5 °F 41.0 °F 89% 30.41 in 7.0 mi NE 4.6 mph - 0.01 in Rain Light Rain
11:53 PM 44.1 °F 39.0 °F 42.1 °F 93% 30.40 in 6.0 mi NNE 9.2 mph - 0.01 in Rain Light Rain